Capitol Logistics 303


PGUM
Guam International Airport
Guam, GU
PHNL
Daniel K Inouye International Airport
Honolulu, US

Activity Log

Date Flight Route Aircraft Duration
09/12/2019 CPX303 DEWSS A450 JIMOS A450 NGUEN A450 BRIUN NONNI BOOKE BOOKE8 B763 7h 46m

Route Details

Aircraft Information
Primary: Boeing 767-300BDSF
Backup: Not Available
Route Data
Distance: 3303nm
Sched. Duration: 6h 50m
Avg. Duration: 7h 46m (+96m)
Times Flown: 1
Recm'd Route: DEWSS A450 JIMOS A450 NGUEN A450 BRIUN NONNI BOOKE BOOKE8
Planned Altitude: 33,000ft
Origin Wx: PGUM 310517Z 08014G21KT 10SM FEW020 SCT027 SCT041 28/24 A2987 RMK AO2 RAB04E15 P0000 T02780244
Dest. Wx: PHNL 310453Z 07010KT 10SM FEW035 FEW090 OVC200 23/17 A3003 RMK AO2 SLP167 T02330172
Notes:

Financial History
Total Freight: 53,844lbs
Average Load: 53,844lbs/flt
Fuel Used: 73,288lbs
Avg. Fuel Used: 73,288lbs/flt
Fuel Expense: $58,630
Avg. Fuel Expense: $58,630
Avg. Fuel Cost: $0.80/lbs
Total Gross Income: $96,381
Pilot Pay: $149
Total Expenses: $10,461
Total Revenue: $25,511
Average Revenue: $96,380.76